Overview Statistics Trail Chart Weather Telemetry Raw packets
 

This is the latest recevied weather packets stored in our database for station/object OK1VOF-13. If no packets are shown the sender has not sent any weather packets the latest 10 day(s).

<< 44 45 46 47 48 49 50 >>
Time Temp. Humidity Pressure Rain* Wind** Luminosity Snow
1788021346 28.89° C 36% 1018.1 hPa 0 mm - - -
1788021047 28.89° C 35% 1018.1 hPa 0 mm - - -
1788020449 28.89° C 35% 1018.2 hPa 0 mm - - -
1788020150 28.89° C 36% 1018.2 hPa 0 mm - - -
1788019852 28.89° C 36% 1018.2 hPa 0 mm - - -
1788019553 28.89° C 36% 1018.2 hPa 0 mm - - -
1788018663 28.89° C 36% 1018.3 hPa 0 mm - - -
1788018065 28.33° C 39% 1018.3 hPa 0 mm - - -
1788017169 27.22° C 40% 1018.3 hPa 0 mm - - -
1788013278 24.44° C 46% 1018.4 hPa 0 mm - - -
1788012979 24.44° C 46% 1018.4 hPa 0 mm - - -
1788012382 24.44° C 46% 1018.3 hPa 0 mm - - -
1788011784 24.44° C 49% 1018.4 hPa 0 mm - - -
1788010001 23.33° C 53% 1018.5 hPa 0 mm - - -
1788009095 22.78° C 55% 1018.6 hPa 0 mm - - -
1788008802 22.22° C 54% 1018.6 hPa 0 mm - - -
1788008205 22.22° C 55% 1018.6 hPa 0 mm - - -
1788006406 21.67° C 61% 1018.5 hPa 0 mm - - -
1788006113 21.11° C 61% 1018.5 hPa 0 mm - - -
1788005516 21.11° C 66% 1018.5 hPa 0 mm - - -
1788003424 21.11° C 65% 1018.7 hPa 0 mm - - -
1788003126 21.11° C 66% 1018.8 hPa 0 mm - - -
1788002229 21.11° C 67% 1018.8 hPa 0 mm - - -
1788001632 20.56° C 71% 1018.8 hPa 0 mm - - -
1788001034 20.56° C 74% 1018.8 hPa 0 mm - - -

* Rain latest hour (hover to see other rain measurements)
** Current wind speed in m/s (hover to see current wind gust speed)